User: anonymous   Login
Location: Unspecified
(0.0000°N, 0.0000°E)
Time: 11:34:05
(UTC+00:00)
Language:

ITAMSAT 1 - Orbit

View from above orbital plane
View from above orbital plane
View from above satellite
View from above satellite

Ground track
Ground track

The orbit data is extracted from the following two-line orbital elements,

1 22826U 93061D   17328.90659168  .00000021  00000-0  25650-4 0  9999
2 22826  98.8294 296.7024 0008352 206.8402 153.2348 14.30344493260551
Epoch (UTC): 24 November 2017 21:45:29
Eccentricity: 0.0008352
inclination: 98.8294°
perigee height: 784 km
apogee height: 796 km
right ascension of ascending node: 296.7024°
argument of perigee: 206.8402°
revolutions per day: 14.30344493
mean anomaly at epoch: 153.2348°
orbit number at epoch: 26055

The dashed part of the orbit path shows where the satellite is in the earth's shadow,  

DLR